This is the latest recevied weather packets stored in our database for station/object KE4LOJ. If no packets are shown the sender has not sent any weather packets the latest 10 day(s).
| Time | Temp. | Humidity | Pressure | Rain* | Wind** | Luminosity | Snow |
|---|---|---|---|---|---|---|---|
| 1777984869 | 22.78° C | 78% | 1016.9 hPa | 0 mm | - | 116 W/m² | - |
| 1777984565 | 22.22° C | 79% | 1017.1 hPa | 0 mm | - | 64 W/m² | - |
| 1777984262 | 21.67° C | 81% | 1017.1 hPa | 0 mm | - | 155 W/m² | - |
| 1777983959 | 21.67° C | 82% | 1017.1 hPa | 0 mm | - | 59 W/m² | - |
| 1777983656 | 21.11° C | 82% | 1016.9 hPa | 0 mm | - | 54 W/m² | - |
| 1777983352 | 21.11° C | 82% | 1016.8 hPa | 0 mm | - | 50 W/m² | - |
| 1777983049 | 21.11° C | 84% | 1017 hPa | 0 mm | - | 70 W/m² | - |
| 1777982746 | 20.56° C | 85% | 1016.8 hPa | 0 mm | - | 38 W/m² | - |
| 1777982441 | 20.56° C | 83% | 1016.8 hPa | 0 mm | - | 37 W/m² | - |
| 1777982136 | 20.56° C | 84% | 1016.8 hPa | 0 mm | - | 32 W/m² | - |
| 1777981834 | 20° C | 87% | 1016.8 hPa | 0 mm | - | 32 W/m² | - |
| 1777981531 | 19.44° C | 89% | 1016.8 hPa | 0 mm | - | 39 W/m² | - |
| 1777981227 | 18.89° C | 91% | 1016.8 hPa | 0 mm | - | 28 W/m² | - |
| 1777980924 | 18.33° C | 91% | 1016.6 hPa | 0 mm | - | 24 W/m² | - |
| 1777980621 | 18.33° C | 92% | 1016.5 hPa | 0 mm | - | 23 W/m² | - |
| 1777980317 | 17.78° C | 92% | 1016.4 hPa | 0 mm | - | 21 W/m² | - |
| 1777980015 | 17.78° C | 93% | 1016.3 hPa | 0 mm | - | 20 W/m² | - |
| 1777979714 | 17.78° C | 93% | 1016.2 hPa | 0 mm | - | 18 W/m² | - |
| 1777979410 | 17.22° C | 93% | 1016.1 hPa | 0 mm | - | 16 W/m² | - |
| 1777979107 | 17.22° C | 94% | 1015.9 hPa | 0 mm | - | 14 W/m² | - |
| 1777978803 | 17.22° C | 94% | 1016.1 hPa | 0 mm | - | 11 W/m² | - |
| 1777978500 | 17.22° C | 94% | 1016.1 hPa | 0 mm | - | 9 W/m² | - |
| 1777978196 | 17.22° C | 94% | 1016 hPa | 0 mm | - | 6 W/m² | - |
| 1777977894 | 16.67° C | 94% | 1015.8 hPa | 0 mm | - | 3 W/m² | - |
| 1777977590 | 16.67° C | 94% | 1015.7 hPa | 0 mm | - | 2 W/m² | - |
* Rain latest hour (hover to see other rain measurements)
** Current wind speed in m/s (hover to see current wind gust speed)